Radcliff, KY

7:26 PM EST on February 07, 2016 (GMT -0500)
Radcliff City Hall | | Change Station
CLOSE
Current Station
Personal Weather Station
Location: Radcliff, KY
Elevation: 741 ft
Nearby Weather Stations
Active Advisory: Special Statement

Elev 741 ft 37.84 °N, 85.94 °W | Updated 48 seconds ago

Clear
Clear
47.7 °F
Feels Like 46 °F
N
5.0
Wind Variable Wind from WSW
Gusts 7.0 mph

Today
High -- | Low -- °F
--% Chance of Precip.
Yesterday
High -- | Low -- °F
Precip. -- in
Pressure 29.91 in
Visibility 10.0 miles
Clouds Clear
Windchill 46 °F
Dew Point 21 °F
Humidity 35%
Rainfall 0.00 in
Snow Depth Not available.
7:42 AM 6:13 PM
Waning Crescent, 1% visible
METAR KFTK 072359Z AUTO 20006KT 10SM CLR 07/M06 A2989 RMK AO2 SLP129 T00721058 10128 20072 56010
Pressure 29.91 in
Visibility 10.0 miles
Clouds Clear
Windchill 46 °F
Dew Point 21 °F
Humidity 35%
Rainfall 0.00 in
Snow Depth Not available.
7:42 AM 6:13 PM
Waning Crescent, 1% visible
METAR KFTK 072359Z AUTO 20006KT 10SM CLR 07/M06 A2989 RMK AO2 SLP129 T00721058 10128 20072 56010

10-Day Weather Forecast

Almanac

Astronomy

Feb. 07, 2016 Rise Set
Actual Time
Civil Twilight
Nautical Twilight
Astronomical Twilight
Moon
Length of Visible Light
Length of Day
Tomorrow will be .
, % of the Moon is Illuminated

Today's Extremes

State Highs State Lows

Community

WunderPhotos

Upload Photos

1,891,335 photos uploaded!

WunderBlog® & News

Nearby

Air Quality

  Air Quality AQ Index Pollutant
Not available.

Snow Depth

Station Depth Elevation

Earthquake Activity

City Distance Mag. Time & Date
Minimum magnitude displayed is 2.5.

Coastal Water Temperatures

Place Temperature

Stations

Nearby Weather Stations

Station Location Temp. Windchill Dew Point Humidity Wind Precip. Elev Updated Type
                   

Watches & Warnings

Special Statement
Issued: 3:05 PM CST Feb. 7, 2016 – National Weather Service

... Snow showers Monday afternoon through Tuesday evening...

After a morning mix of light rain and snow showers... scattered to
numerous moderate snow showers are expected at times from Monday
afternoon through at least Tuesday evening. As temperatures fall
below freezing... each passing shower will produce a dusting to a
light coating of snow capable of quickly covering surfaces. Travel
may be minorly impacted at times... especially untreated and side
streets. Overall 1 to 2 inches of snow is possible through Tuesday
evening. Use caution if planning to travel during this time.


Bjs